Tracking 23726 objects as of 25-Sep-2021
HD Live streaming from Space Station
objects crossing your sky now

STARLINK-1656

Track STARLINK-1656 now!
10-day predictions
STARLINK-1656 is classified as:


NORAD ID: 46353
Int'l Code: 2020-062AE
Perigee: 552.7 km
Apogee: 556.0 km
Inclination: 53.1 °
Period: 95.6 minutes
Semi major axis: 6925 km
RCS: Unknown
Launch date: September 3, 2020
Source: United States (US)
Launch site: AIR FORCE EASTERN TEST RANGE (AFETR)
aabbcc
Your satellite tracking list
Your tracking list is empty




NASA's NSSDC Master Catalog

Two Line Element Set (TLE):
1 46353U 20062AE  21268.31464114 -.00000247  00000-0  23136-5 0  9998
2 46353  53.0539 117.7025 0002338  81.6145 278.5109 15.06400779 59355
Source of the keplerian elements: AFSPC